Location: Ellerstadt
(49.4644°N, 8.2615°E)
Time: 11:52:18
(UTC+00:00)

Cosmos 1503 Rocket - Pass Details

Date: 03 March 2021
Orbit: 753 x 790 km, 74.0° (Epoch: 13 April)

Event Time Altitude Azimuth Distance (km) Brightness Sun altitude
Rises 18:28:22 0° 335° (NNW) 3,234 7.7 -13.0°
Reaches altitude 10° 18:30:45 10° 334° (NNW) 2,299 6.9 -13.4°
Maximum altitude 18:35:58 80° 249° (WSW) 774 4.1 -14.2°
Drops below altitude 10° 18:41:07 10° 163° (SSE) 2,272 6.2 -15.1°
Sets 18:43:27 0° 162° (SSE) 3,192 7.0 -15.4°
